Tracking 28790 objects as of 18-Apr-2024
HD Live streaming from Space Station
objects crossing your sky now

STARLINK-2174

Track STARLINK-2174 now!
10-day predictions
STARLINK-2174 is classified as:


NORAD ID: 47756
Int'l Code: 2021-017AL
Perigee: 553.3 km
Apogee: 555.5 km
Inclination: 53.1 °
Period: 95.6 minutes
Semi major axis: 6925 km
RCS: Unknown
Launch date: March 4, 2021
Source: United States (US)
Launch site: AIR FORCE EASTERN TEST RANGE (AFETR)
Your satellite tracking list
Your tracking list is empty




NASA's NSSDC Master Catalog

Two Line Element Set (TLE):
1 47756U 21017AL  24109.18800383 -.00001844  00000-0 -10496-3 0  9999
2 47756  53.0556  71.3950 0001591 100.2025 259.9143 15.06391781173708
Source of the keplerian elements: AFSPC